This is the latest recevied weather packets stored in our database for station/object W4WYD-2. If no packets are shown the sender has not sent any weather packets the latest 10 day(s).
| Time | Temp. | Humidity | Pressure | Rain* | Wind** | Luminosity | Snow |
|---|---|---|---|---|---|---|---|
| 1787749484 | 21.67° C | 99% | 1016.9 hPa | 0 mm | - | 45 W/m² | - |
| 1787749184 | 21.67° C | 99% | 1017 hPa | 0 mm | - | 49 W/m² | - |
| 1787748878 | 21.67° C | 99% | 1017.4 hPa | 0 mm | - | 43 W/m² | - |
| 1787748573 | 21.67° C | 99% | 1017 hPa | 0 mm | - | 40 W/m² | - |
| 1787748269 | 21.67° C | 99% | 1017 hPa | 0 mm | - | 48 W/m² | - |
| 1787747964 | 21.67° C | 99% | 1017.1 hPa | 0 mm | - | 46 W/m² | - |
| 1787747659 | 21.11° C | 99% | 1017.2 hPa | 0 mm | - | 45 W/m² | - |
| 1787747353 | 21.11° C | 99% | 1017 hPa | 0 mm | - | 46 W/m² | - |
| 1787747049 | 21.11° C | 99% | 1017.1 hPa | 0 mm | - | 43 W/m² | - |
| 1787746745 | 21.11° C | 99% | 1017 hPa | 0 mm | - | 40 W/m² | - |
| 1787746444 | 20.56° C | 99% | 1016.7 hPa | 0 mm | - | 39 W/m² | - |
| 1787746143 | 20.56° C | 99% | 1016.7 hPa | 0 mm | - | 34 W/m² | - |
| 1787745838 | 20.56° C | 99% | 1016.7 hPa | 0 mm | - | 31 W/m² | - |
| 1787745536 | 20.56° C | 99% | 1016.4 hPa | 0 mm | - | 27 W/m² | - |
| 1787745230 | 20.56° C | 99% | 1016.5 hPa | 0 mm | - | 23 W/m² | - |
| 1787744926 | 20.56° C | 99% | 1016.5 hPa | 0 mm | - | 19 W/m² | - |
| 1787744622 | 20.56° C | 99% | 1016.5 hPa | 0 mm | - | 15 W/m² | - |
| 1787744318 | 20.56° C | 99% | 1016.5 hPa | 0 mm | - | 10 W/m² | - |
| 1787744013 | 20.56° C | 99% | 1016.7 hPa | 0 mm | - | 6 W/m² | - |
| 1787743708 | 20.56° C | 99% | 1016.7 hPa | 0 mm | - | 3 W/m² | - |
| 1787743408 | 20.56° C | 99% | 1016.4 hPa | 0 mm | - | 2 W/m² | - |
| 1787743105 | 20.56° C | 99% | 1016.4 hPa | 0 mm | - | 1 W/m² | - |
| 1787742800 | 20.56° C | 99% | 1016.3 hPa | 0 mm | - | 1 W/m² | - |
| 1787742495 | 20.56° C | 99% | 1016.2 hPa | 0 mm | - | 0 W/m² | - |
| 1787742192 | 20° C | 99% | 1016.2 hPa | 0 mm | - | 0 W/m² | - |
* Rain latest hour (hover to see other rain measurements)
** Current wind speed in m/s (hover to see current wind gust speed)